Powrót do katalogu

FENGYUN 1C DEB

AktywnySSO
NORAD 46449·DEBRIS·🇨🇳 China

Wystrzelony May 10, 1999 z Taiyuan Satellite Launch Center

Loading…

Następne Przeloty (najbliższe 24 godziny)

TLE

Starzejące sięSource: Space-Track

Epoka: Sep 3, 2026, 13:05 UTC

1 46449U 99025EZE 26246.54540264  .00000444  00000-0  18930-3 0  9998
2 46449  98.6184 279.3191 0201629 225.8907 132.5528 14.19649179613939

Śledź FENGYUN 1C DEB w czasie rzeczywistym z AllMySat

Download on the App Store